Location: Bennemühlen
(52.5740°N, 9.7135°E)
Time: 01:10:43
(UTC+00:00)

Cosmos 2369 - Pass Details

Date: 19 May 2025
Orbit: 839 x 853 km, 71.0° (Epoch: 15 June)

Event Time Altitude Azimuth Distance (km) Brightness Sun altitude
Rises 21:29:41 0° 328° (NNW) 3,417 8.8 -13.8°
Reaches altitude 10° 21:32:08 10° 327° (NNW) 2,476 7.6 -13.9°
Maximum altitude 21:37:49 78° 242° (WSW) 865 3.7 -14.3°
Enters shadow 21:41:37 22° 159° (SSE) 1,775 4.7 -14.5°
